map of GRJ home
GRJ - Airport
Location
City:  George, Western Cape, South Africa
ICAO:FAGG
IATA:GRJ

Details
Type:Airport (Aerodrome, Airfield)
Use:Public/Civil
Latitude:3400'20"S (-34.005552)
Longitude:2222'44"E (22.378889)
Datum:WGS 1984
Elevation:648 ft (198 m)
Variation:27.06W (WMM2015 magnetic declination)
-0.15 annual change
Runways:2
Longest:6562 × 148 ft (2000 × 45 m), paved

Time
Time Zone:UTC+2
Local Time:

Weather
METAR:FAGG 210921Z 31013KT 290V350 CAVOK 21/03 Q1019
TAF:FAGG 202200Z 2100/2124 06005KT CAVOK
BECMG 2102/2104 29006KT TX22/2112Z TN06/2106Z

Related Locations
Nearby:
Farthest:HPV: 11610 mi / 18685 km
Hanalei [Princeville Airport], Kauai, HI, US

Find:

   beyond  
but within

Other Information
Maps:
NOTAMs:
Links:
Sources:

  
  • flag of South Africa
  • flag of Western Cape
  

Sectional Chart

Flight Planning
at skyvector.com

Satellite Image

Google Maps Satellite view

 

Copyright © 2004-2018 Karl L. Swartz. All rights reserved.
The Great Circle Mapper name and logo are trademarks of the Great Circle Mapper.
All other trademarks mentioned herein belong to their respective owners.
Please see credits for attibutions and further copyright information.

  Follow gcmap on Facebook Follow gcmap on Twitter Follow gcmap on Google+ GCmap on LinkedIn

hCard Microformat

Geo Microformat